Temperature
18 18 18 18 18 18 18 17 17 17 17 17 17 17 17 17 17 16 16 17 16 16 16 16 17 17 16 16 16 16 16 16 16 16 16 16 16 16 16 16 16 16 16
18 18 18 18 17 17 17 17 17 17 17 17 17 17 17 17 16 16 16 16 16 16 16 16 16 16 16 16 16 16 16 16 16 16 16 16 16 16 16 16 16 16 15
18 18 17 17 17 17 17 17 17 17 17 17 17 16 16 16 16 16 16 16 16 16 16 16 16 16 16 16 16 16 16 16 15 15 15 15 15 15 15 15 15 15 15
18 17 17 17 17 17 17 17 17 17 17 16 16 16 16 16 16 16 16 16 16 16 16 16 16 15 16 16 16 15 15 15 15 15 15 15 15 14 14 14 14 14 14
17 17 17 17 17 17 17 17 16 16 16 16 16 16 16 16 16 16 15 15 15 15 15 15 15 15 15 15 15 15 15 15 15 14 14 14 14 14 13 13 13 13 13
17 17 17 17 16 16 16 16 16 16 16 16 16 16 15 15 15 15 15 15 15 15 15 15 15 14 14 14 14 14 14 14 14 14 13 13 13 13 13 13 12 12 12
17 16 16 16 16 16 16 16 16 16 16 16 15 15 15 15 15 15 15 15 15 14 14 14 14 14 14 14 14 14 14 13 13 13 13 12 12 12 12 12 12 12 12
16 16 16 16 16 15 15 15 15 15 15 15 15 15 15 14 14 14 14 14 14 14 14 14 13 13 13 13 13 13 13 12 12 12 12 12 12 12 11 11 11 11 11
16 16 16 15 15 15 15 15 15 14 14 14 14 14 14 14 14 14 14 14 13 13 13 13 13 13 12 12 13 12 12 12 11 11 11 11 11 11 11 11 11 11 11
16 16 15 15 15 14 14 14 14 14 14 14 14 13 13 13 13 13 13 13 13 13 12 12 12 12 12 12 12 12 11 11 11 11 11 10 10 10 10 10 10 10 10
15 15 15 14 14 14 14 14 14 13 13 13 13 13 13 13 12 12 12 13 12 12 12 11 11 11 11 11 11 11 10 10 10 10 10 10 10 10 9 9 9 9 9
15 15 14 14 14 13 13 13 13 13 13 13 13 12 12 12 12 12 12 12 11 11 11 11 10 10 10 10 10 10 10 10 10 9 9 9 9 9 9 9 9 8 8
14 14 14 13 13 13 13 13 13 13 12 12 12 12 12 11 11 11 11 11 11 11 10 10 10 10 10 9 9 9 9 9 9 9 9 8 8 8 8 8 8 8 8
14 14 13 13 13 13 12 12 12 12 12 12 12 11 11 11 11 10 10 10 10 10 10 9 9 9 9 9 9 9 9 8 8 8 8 8 7 7 7 7 7 7 7
13 13 13 13 12 12 12 12 12 11 11 11 11 11 11 10 10 10 10 10 9 9 9 9 9 9 8 8 8 8 8 8 7 7 7 7 7 7 6 6 6 7 7
13 13 12 12 12 12 11 11 11 11 10 10 10 10 10 10 9 9 9 9 9 9 9 9 8 8 8 7 7 7 7 7 7 6 6 6 6 6 6 6 6 6 6
12 12 12 11 11 11 11 11 10 10 10 9 9 9 9 9 9 9 9 9 8 8 8 8 7 7 7 7 7 7 6 6 6 6 6 6 6 6 6 5 5 5 5
12 12 11 11 11 11 10 10 10 10 9 9 9 9 8 8 8 8 8 8 8 8 7 7 7 7 6 6 6 6 6 6 6 5 5 5 5 5 5 5 5 5 5
11 11 11 11 10 10 10 10 9 9 9 9 8 8 8 8 8 8 8 7 7 7 7 6 6 6 6 6 6 6 5 5 5 5 5 5 5 5 5 4 4 4 4
11 11 10 10 10 10 9 9 9 9 9 8 8 8 8 8 7 7 7 7 6 6 6 6 6 6 5 5 5 5 5 5 5 5 5 4 4 4 4 4 4 4 4
10 10 10 10 10 10 9 9 9 9 8 8 8 7 7 7 7 7 6 6 6 6 6 6 5 5 5 5 5 5 5 5 4 4 4 4 4 4 4 4 4 4 4
10 10 10 10 9 9 9 9 8 8 8 7 7 7 6 6 6 6 6 6 5 5 5 5 5 5 5 5 5 5 5 4 4 4 4 4 4 4 4 3 3 3 3
10 10 9 9 9 9 8 8 8 7 7 7 7 6 6 6 6 6 6 5 5 5 5 5 5 5 5 4 4 4 4 4 4 4 4 4 4 4 3 3 3 3 3
9 9 9 9 8 8 8 8 7 7 7 7 6 6 6 6 6 5 5 5 5 5 5 5 4 4 4 4 4 4 4 4 4 4 4 4 3 3 3 3 3 3 3
9 9 9 8 8 8 7 7 7 7 6 6 6 6 6 5 5 5 5 5 5 4 4 4 4 4 4 4 4 4 4 4 4 3 3 3 3 3 3 3 3 3 3
9 8 8 8 8 7 7 7 7 6 6 6 6 5 5 5 5 5 5 4 4 4 4 4 4 4 4 4 4 4 3 3 3 3 3 3 3 3 3 3 3 3 3
Wind_Speed
4 4 3 3 3 3 3 4 4 3 3 4 4 5 5 5 5 5 5 5 5 5 4 4 5 4 4 4 4 4 5 5 6 4 2 2 2 3 2 3 4 4 4
3 3 3 2 2 2 3 3 3 3 3 3 3 4 4 4 4 5 6 5 5 5 5 4 5 4 4 4 3 4 4 4 5 5 3 2 3 2 1 1 1 1 1
3 3 2 2 2 2 2 2 2 2 2 1 2 2 3 3 3 4 4 4 4 4 4 4 4 3 3 3 3 4 3 3 3 3 3 1 2 1 0 0 1 2 2
3 3 2 2 2 2 2 2 2 2 2 2 2 2 2 2 2 3 3 3 2 2 1 2 2 2 3 3 2 3 2 2 2 2 2 1 1 1 0 0 1 2 2
3 2 1 1 1 1 2 2 2 2 2 2 3 2 2 2 1 2 2 2 2 1 1 1 1 1 1 1 1 2 2 2 2 2 1 0 1 1 0 0 0 1 2
4 3 2 2 2 2 2 2 3 3 3 3 3 3 3 2 4 5 4 3 2 2 1 2 2 2 3 4 4 4 3 2 2 1 1 0 1 1 1 1 1 0 1
4 4 4 3 3 2 3 4 4 3 4 4 4 4 5 5 7 7 7 5 5 4 4 3 3 3 4 4 6 8 7 6 3 2 2 0 1 1 0 0 0 1 1
5 4 4 4 4 4 4 4 4 4 4 4 5 5 5 6 7 7 8 7 7 6 5 5 5 5 5 5 7 8 8 7 7 5 4 3 3 2 1 1 1 1 0
4 4 4 4 4 4 5 4 4 5 5 5 5 6 6 6 7 7 8 6 7 7 7 7 6 6 7 8 8 8 8 7 10 12 11 9 10 9 5 3 2 1 1
3 4 4 5 5 5 5 4 4 5 5 6 7 6 6 6 8 8 7 6 7 6 6 7 10 9 9 9 7 7 7 5 5 7 8 9 9 10 10 5 2 1 1
4 5 6 5 5 6 6 5 6 7 7 7 8 7 7 7 8 9 8 6 6 6 6 6 7 12 12 11 9 7 6 5 6 6 6 6 7 7 7 7 5 3 2
6 7 6 6 5 6 7 6 6 7 8 7 7 7 7 7 8 9 11 9 8 7 6 6 8 13 14 13 10 9 10 8 6 6 6 6 6 5 5 6 7 6 4
8 8 7 7 6 6 6 7 6 6 6 6 6 6 5 5 7 10 11 11 11 8 7 10 11 12 12 11 12 12 9 7 7 7 6 5 4 4 5 5 6 7 7
8 7 7 8 8 7 6 5 5 5 5 6 6 5 5 5 5 5 6 7 9 9 8 10 12 13 11 10 9 8 7 7 6 5 4 4 4 5 6 5 4 4 4
8 8 7 7 8 8 8 7 6 5 4 6 5 5 5 5 3 5 6 6 6 6 7 7 7 7 7 7 7 7 6 6 6 5 5 5 5 5 5 5 4 4 4
8 7 6 6 7 7 8 9 14 11 13 12 9 7 6 7 8 10 11 11 10 10 8 7 6 6 5 5 5 5 5 5 5 4 4 4 4 4 4 5 4 4 4
8 7 6 6 6 6 6 7 8 9 14 14 12 11 11 10 11 12 12 12 11 10 8 6 5 5 4 4 4 4 3 4 3 4 4 4 4 4 4 4 4 4 4
8 7 7 6 6 6 6 6 6 7 6 6 9 11 11 11 11 11 11 10 8 7 6 5 4 4 3 3 3 3 3 3 4 4 3 3 3 3 4 4 4 4 4
7 6 6 6 6 6 6 6 6 7 7 5 5 6 8 10 11 10 8 7 6 5 4 4 3 3 3 3 3 3 3 3 3 3 3 3 3 3 3 3 3 4 4
6 9 8 7 6 6 6 6 6 6 6 5 5 4 3 4 5 5 5 5 5 4 3 3 3 2 2 2 3 3 3 3 3 3 3 3 3 2 3 3 3 3 3
6 7 9 7 6 6 6 6 6 6 5 5 4 3 4 4 4 4 4 3 3 3 2 2 2 2 2 2 2 2 3 2 3 2 3 3 3 3 3 3 3 3 3
6 5 5 6 6 5 6 5 6 6 6 5 4 4 6 4 3 3 3 2 2 2 2 2 2 2 2 2 2 2 2 2 2 2 2 3 2 2 2 2 3 3 3
6 7 6 6 6 7 6 5 5 5 5 4 4 4 4 3 3 3 3 2 2 2 2 2 2 2 2 2 2 2 2 2 3 3 3 3 2 2 2 2 3 3 4
7 7 7 7 6 6 6 5 5 5 4 4 4 4 3 3 3 3 2 2 2 2 2 2 1 2 3 3 3 3 4 4 4 4 3 3 3 2 2 3 3 3 3
7 7 7 6 6 6 5 5 5 4 4 4 4 3 3 3 2 2 1 1 1 1 2 2 2 2 3 4 5 5 6 6 5 4 3 2 2 3 3 3 3 3 3
7 7 6 6 5 5 5 4 4 4 4 3 3 3 2 2 2 1 1 1 0 0 1 1 2 3 4 5 6 6 7 7 6 5 3 2 2 2 3 3 4 4 4
Wind_Direction
176 181 187 187 192 195 206 215 214 207 199 199 202 201 203 202 198 200 210 205 209 220 222 221 234 230 225 225 221 218 218 213 234 258 245 250 239 258 276 250 248 247 258
159 156 162 167 165 180 205 214 201 195 196 196 193 191 200 200 193 200 210 208 210 219 223 220 235 230 229 227 218 222 221 213 218 248 260 255 245 255 259 265 302 265 260
129 136 139 147 159 183 198 193 172 169 168 161 160 181 194 196 190 198 202 202 209 220 220 221 235 222 232 231 220 223 224 216 206 219 251 259 262 263 226 28 27 8 21
115 121 138 180 188 192 178 157 146 142 136 129 136 153 168 175 182 190 184 186 194 210 225 228 238 224 231 229 223 217 205 193 187 198 231 268 299 322 44 48 14 25 17
105 105 134 173 153 143 133 129 121 117 125 123 115 107 106 123 131 144 152 155 148 139 80 43 40 71 84 159 192 167 163 169 171 181 205 272 316 355 316 286 269 24 24
103 90 78 84 93 114 119 113 100 93 94 97 100 99 85 81 83 94 111 103 93 88 66 49 49 55 68 82 90 97 115 152 159 158 171 216 286 279 298 256 232 282 335
90 76 67 73 86 95 102 95 96 98 97 93 92 94 89 76 82 89 93 94 81 66 60 57 56 51 70 82 79 74 66 66 91 127 109 33 309 303 240 33 67 102 269
90 80 74 75 78 84 87 84 84 89 93 93 89 88 88 73 75 86 93 88 79 68 62 62 68 60 65 84 83 71 61 52 59 68 76 60 53 46 72 146 138 130 85
88 78 71 81 84 84 88 89 93 98 93 87 85 84 85 71 69 83 96 93 82 68 58 55 65 69 66 82 88 81 68 54 60 67 69 65 57 51 54 73 69 84 18
91 84 79 81 87 85 83 85 86 95 97 93 81 74 74 69 63 78 94 96 87 75 61 54 57 67 63 69 83 87 80 61 59 56 52 48 47 45 43 46 51 68 38
99 95 89 89 92 90 82 75 83 90 90 86 81 69 63 60 61 68 79 92 97 88 74 63 57 63 64 62 69 76 80 76 68 65 57 48 43 40 37 38 40 52 61
98 96 96 94 94 93 90 82 84 92 91 87 83 71 56 54 62 72 77 81 89 90 83 76 73 71 68 65 66 65 68 70 69 63 57 45 37 30 24 32 42 49 51
98 93 91 90 88 90 96 95 90 91 97 94 90 83 69 60 61 69 76 78 81 85 85 84 79 73 70 66 59 58 60 64 68 66 58 45 31 22 27 34 37 43 47
99 94 91 90 85 78 78 81 90 96 103 103 100 97 86 72 67 73 79 82 79 83 84 77 73 69 68 62 56 52 53 57 64 63 54 42 33 35 36 31 28 21 38
97 95 91 87 89 79 69 58 68 63 90 109 109 112 111 99 73 88 97 91 94 97 92 75 66 64 62 57 53 49 47 47 50 47 50 46 39 36 31 23 26 30 36
104 99 99 98 95 95 92 76 56 66 72 76 86 99 82 92 97 90 87 86 88 95 87 78 73 70 68 62 56 50 46 45 44 47 49 46 41 36 31 27 31 34 31
110 109 108 108 106 105 104 104 92 66 61 63 69 84 94 98 95 93 90 83 76 80 81 80 76 70 64 60 54 51 44 35 37 45 44 39 37 38 38 30 25 24 18
106 108 111 110 110 107 103 101 102 104 90 63 53 71 87 91 90 90 92 85 69 63 76 80 76 70 64 58 52 47 42 38 38 37 37 33 30 31 31 25 20 13 6
107 107 106 107 106 105 105 102 100 100 100 95 85 68 73 82 78 73 77 84 89 82 79 75 71 68 62 55 48 43 44 41 33 29 27 20 16 18 17 11 7 3 3
103 109 108 110 110 109 108 107 105 105 103 101 98 94 90 85 84 71 67 82 90 89 86 80 66 60 56 53 48 43 42 36 27 24 13 6 1 3 0 354 352 351 349
107 110 108 107 109 113 112 110 110 110 109 105 93 86 102 101 99 92 86 86 93 97 93 85 70 52 45 45 40 35 31 21 12 4 358 352 349 346 340 340 340 341 343
109 107 106 108 108 109 110 110 110 111 113 109 100 87 89 92 98 96 94 90 85 84 89 91 73 44 30 22 13 9 5 357 351 344 338 335 333 333 335 339 343 345 348
111 110 104 102 105 108 109 110 111 112 112 112 112 106 101 100 102 103 101 93 85 77 68 74 70 38 22 13 4 351 331 321 315 309 311 319 327 329 328 331 335 338 343
112 114 113 110 109 112 111 110 111 114 117 119 119 117 113 110 104 100 99 96 84 66 58 60 54 30 8 358 350 341 325 313 305 294 291 296 308 317 322 329 331 332 333
110 112 114 117 118 116 113 111 112 115 118 121 122 120 118 115 111 106 103 101 90 64 49 49 31 7 357 355 353 347 340 335 329 316 300 292 304 316 325 331 332 332 332
108 110 111 113 115 118 120 120 119 119 120 124 130 133 134 136 140 140 137 136 137 336 348 12 13 2 353 350 350 351 351 349 345 339 321 302 313 325 332 330 332 333 333
Height
1520 1521 1523 1524 1525 1526 1527 1528 1529 1530 1531 1532 1534 1535 1536 1537 1538 1539 1541 1543 1544 1545 1545 1546 1547 1547 1548 1548 1549 1549 1550 1550 1549 1549 1549 1550 1550 1550 1550 1550 1550 1550 1550
1518 1519 1520 1521 1523 1523 1524 1525 1526 1527 1528 1529 1530 1531 1533 1534 1535 1536 1537 1539 1540 1541 1541 1542 1543 1543 1543 1544 1544 1544 1545 1545 1545 1544 1544 1545 1545 1545 1545 1545 1545 1546 1546
1517 1517 1518 1519 1520 1521 1522 1523 1524 1525 1526 1527 1528 1528 1529 1531 1532 1533 1534 1535 1536 1537 1538 1538 1539 1539 1539 1539 1540 1540 1540 1540 1540 1540 1540 1540 1540 1540 1540 1541 1541 1541 1541
1516 1517 1517 1518 1518 1519 1520 1521 1522 1523 1524 1525 1526 1526 1527 1528 1529 1530 1531 1532 1533 1534 1534 1535 1535 1535 1535 1535 1535 1535 1536 1536 1536 1536 1536 1536 1536 1536 1536 1536 1536 1537 1537
1515 1515 1516 1516 1517 1517 1518 1520 1521 1522 1523 1523 1524 1524 1525 1526 1527 1528 1528 1529 1530 1530 1531 1532 1532 1532 1532 1531 1531 1531 1531 1531 1531 1531 1531 1531 1531 1532 1532 1532 1532 1533 1533
1515 1515 1515 1515 1515 1516 1517 1518 1519 1520 1521 1522 1522 1523 1524 1525 1525 1526 1527 1528 1528 1528 1529 1529 1529 1529 1529 1528 1528 1528 1528 1528 1528 1528 1527 1527 1528 1528 1529 1529 1529 1529 1529
1514 1514 1514 1514 1514 1515 1516 1517 1518 1520 1521 1521 1522 1523 1523 1524 1525 1526 1527 1527 1527 1527 1527 1527 1527 1527 1527 1526 1525 1525 1525 1525 1526 1526 1525 1525 1525 1526 1526 1526 1526 1526 1526
1513 1513 1513 1514 1514 1515 1516 1517 1518 1518 1519 1520 1521 1522 1523 1524 1525 1525 1526 1526 1526 1526 1527 1527 1526 1526 1526 1525 1525 1524 1524 1524 1524 1523 1523 1524 1524 1524 1524 1525 1525 1525 1525
1513 1513 1513 1514 1515 1515 1516 1517 1518 1518 1519 1520 1521 1522 1523 1523 1524 1525 1526 1526 1526 1526 1526 1527 1526 1526 1526 1526 1525 1524 1524 1524 1524 1524 1524 1524 1524 1524 1524 1524 1524 1523 1523
1513 1513 1514 1515 1515 1516 1516 1517 1518 1518 1519 1520 1521 1522 1523 1524 1524 1526 1526 1526 1526 1526 1527 1527 1527 1527 1527 1526 1526 1525 1524 1525 1525 1525 1525 1525 1525 1524 1524 1524 1523 1522 1522
1513 1513 1514 1515 1516 1517 1517 1518 1519 1519 1520 1521 1521 1522 1523 1524 1525 1526 1527 1527 1527 1527 1527 1527 1528 1528 1528 1527 1527 1526 1526 1526 1526 1526 1526 1526 1525 1525 1524 1524 1523 1522 1521
1513 1514 1515 1516 1516 1517 1518 1519 1520 1521 1521 1522 1523 1524 1525 1525 1526 1527 1528 1528 1528 1528 1528 1528 1528 1529 1529 1529 1528 1528 1528 1528 1528 1527 1527 1527 1526 1525 1525 1524 1523 1522 1521
1513 1514 1515 1516 1517 1518 1519 1520 1521 1522 1523 1524 1525 1525 1526 1527 1528 1529 1529 1529 1529 1529 1530 1530 1530 1530 1530 1530 1530 1530 1530 1529 1529 1529 1528 1527 1527 1526 1525 1524 1523 1523 1522
1514 1515 1516 1517 1518 1519 1520 1521 1522 1524 1524 1525 1526 1527 1528 1529 1529 1530 1530 1531 1531 1531 1531 1532 1532 1532 1532 1532 1532 1532 1531 1531 1530 1530 1530 1529 1529 1528 1526 1525 1524 1523 1522
1514 1516 1517 1518 1519 1520 1521 1522 1524 1525 1526 1527 1528 1529 1530 1530 1532 1533 1533 1533 1533 1533 1533 1534 1534 1534 1534 1534 1534 1533 1533 1533 1532 1532 1531 1530 1530 1529 1528 1527 1526 1524 1523
1515 1516 1518 1519 1520 1522 1523 1524 1525 1527 1528 1529 1530 1531 1532 1533 1534 1534 1535 1535 1535 1536 1536 1536 1536 1536 1536 1536 1535 1535 1535 1534 1534 1533 1532 1531 1531 1530 1529 1528 1526 1525 1523
1516 1517 1519 1520 1521 1523 1524 1525 1526 1528 1530 1531 1532 1534 1535 1535 1536 1537 1537 1537 1538 1538 1538 1538 1538 1538 1538 1537 1537 1537 1536 1536 1535 1534 1533 1533 1532 1530 1529 1528 1527 1525 1524
1518 1519 1520 1522 1523 1525 1526 1527 1529 1530 1531 1533 1534 1536 1537 1538 1538 1539 1539 1539 1539 1539 1539 1540 1540 1540 1539 1539 1538 1538 1537 1536 1536 1535 1534 1533 1532 1531 1530 1528 1527 1526 1524
1519 1521 1522 1523 1525 1527 1528 1530 1531 1532 1534 1535 1536 1538 1539 1540 1540 1541 1541 1541 1541 1541 1541 1541 1541 1541 1541 1540 1539 1538 1538 1537 1536 1536 1535 1534 1532 1531 1530 1529 1527 1526 1524
1522 1523 1524 1526 1527 1529 1530 1532 1533 1534 1535 1537 1538 1539 1540 1541 1541 1542 1542 1542 1542 1543 1543 1543 1543 1542 1541 1541 1540 1539 1538 1537 1537 1536 1535 1534 1532 1531 1530 1529 1527 1526 1524
1524 1525 1527 1528 1529 1531 1532 1533 1535 1536 1537 1538 1540 1541 1542 1542 1543 1543 1543 1544 1544 1544 1544 1543 1543 1542 1542 1541 1540 1539 1538 1537 1536 1535 1534 1533 1532 1531 1529 1528 1527 1525 1523
1526 1527 1529 1530 1531 1532 1534 1535 1536 1538 1539 1540 1541 1542 1543 1544 1544 1544 1545 1545 1545 1545 1544 1544 1543 1543 1542 1541 1540 1539 1538 1537 1536 1535 1533 1532 1531 1530 1529 1527 1526 1524 1523
1527 1529 1530 1532 1533 1534 1535 1537 1538 1539 1540 1541 1542 1543 1544 1545 1545 1545 1546 1546 1546 1545 1545 1544 1543 1543 1542 1541 1540 1538 1537 1536 1535 1534 1532 1531 1530 1529 1528 1526 1525 1523 1522
1529 1530 1532 1533 1534 1536 1537 1538 1539 1541 1541 1542 1544 1544 1545 1546 1546 1547 1547 1547 1546 1546 1545 1544 1544 1543 1542 1540 1539 1538 1537 1535 1534 1533 1532 1531 1529 1528 1527 1526 1524 1523 1521
1531 1532 1534 1535 1536 1538 1539 1540 1541 1542 1543 1544 1545 1546 1546 1547 1547 1547 1547 1547 1547 1546 1546 1545 1544 1543 1541 1540 1539 1537 1536 1535 1533 1532 1531 1530 1529 1527 1526 1525 1523 1522 1520
1533 1535 1536 1537 1539 1540 1541 1542 1543 1544 1544 1545 1546 1547 1547 1548 1548 1548 1548 1547 1547 1546 1545 1544 1543 1542 1541 1540 1538 1537 1535 1534 1533 1531 1530 1529 1528 1526 1525 1524 1522 1521 1519